San Francisco, CA

4:31 PM PST on February 12, 2016 (GMT -0800)
San Francisco International | | Change Station
CLOSE
Current Station
Airport
Location: San Francisco,
Elevation: 16 ft
Nearby Weather Stations

Elev 16 ft 37.62 °N, 122.37 °W | Updated 35 minutes ago

Mostly Cloudy
Mostly Cloudy
60 °F
Feels Like 60 °F
N
18
Wind Variable Wind from West

Today
High -- | Low -- °F
--% Chance of Precip.
Yesterday
High -- | Low -- °F
Precip. -- in
Pressure 30.19 in
Visibility 10.0 miles
Clouds Scattered Clouds 900 ft
Mostly Cloudy 15000 ft
Mostly Cloudy 20000 ft
Dew Point 55 °F
Humidity 83%
Rainfall 0.00 in
Snow Depth Not available.
7:02 AM 5:45 PM
Waxing Crescent, 25% visible
METAR KSFO 122356Z 27016KT 10SM SCT009 BKN150 BKN200 16/13 A3019 RMK AO2 SLP222 T01560128 10189 20139 55003
Pressure 30.19 in
Visibility 10.0 miles
Clouds Scattered Clouds 900 ft
Mostly Cloudy 15000 ft
Mostly Cloudy 20000 ft
Dew Point 55 °F
Humidity 83%
Rainfall 0.00 in
Snow Depth Not available.
7:02 AM 5:45 PM
Waxing Crescent, 25% visible
METAR KSFO 122356Z 27016KT 10SM SCT009 BKN150 BKN200 16/13 A3019 RMK AO2 SLP222 T01560128 10189 20139 55003

10-Day Weather Forecast

Almanac

Astronomy

Feb. 12, 2016 Rise Set
Actual Time
Civil Twilight
Nautical Twilight
Astronomical Twilight
Moon
Length of Visible Light
Length of Day
Tomorrow will be .
, % of the Moon is Illuminated

Today's Extremes

State Highs State Lows

Community

WunderPhotos

Upload Photos

1,892,444 photos uploaded!

WunderBlog® & News

Nearby

Air Quality

  Air Quality AQ Index Pollutant
Not available.

Snow Depth

Station Depth Elevation

Earthquake Activity

City Distance Mag. Time & Date
Minimum magnitude displayed is 2.5.

Coastal Water Temperatures

Place Temperature

Stations

Nearby Weather Stations

Station Location Temp. Windchill Dew Point Humidity Wind Precip. Elev Updated Type
                   

Watches & Warnings

There are currently no watches in effect.